| time (UTC) | temp F | wind direction | speed knots | gust knots | rain 1hr in | rain 24hr in | rain mn in | humidity % | barometer mb |
| 20260902220017 | 95 | 241 | 0.9 | 3.5 | 0.00 | 0.00 | 0.00 | 67 | 1014.3 |
| 20260902214516 | 95 | 215 | 0.9 | 2.6 | 0.00 | 0.00 | 0.00 | 67 | 1014.3 |
| 20260902213012 | 95 | 215 | 0.9 | 5.2 | 0.00 | 0.00 | 0.00 | 68 | 1014.3 |
| 20260902211514 | 94 | 204 | 1.7 | 4.3 | 0.00 | 0.00 | 0.00 | 68 | 1014.4 |
| 20260902210007 | 94 | 238 | 1.7 | 3.5 | 0.00 | 0.00 | 0.00 | 67 | 1014.6 |
| 20260902204502 | 94 | 225 | 1.7 | 6.1 | 0.00 | 0.00 | 0.00 | 68 | 1014.7 |
| 20260902203001 | 94 | 250 | 3.5 | 7.8 | 0.00 | 0.00 | 0.00 | 63 | 1014.8 |
| 20260902201558 | 94 | 214 | 1.7 | 7.0 | 0.00 | 0.00 | 0.00 | 69 | 1014.8 |
| 20260902200058 | 94 | 215 | 1.7 | 6.1 | 0.00 | 0.00 | 0.00 | 69 | 1015.0 |
| 20260902194553 | 94 | 221 | 3.5 | 7.8 | 0.00 | 0.00 | 0.00 | 64 | 1015.2 |
| 20260902193050 | 94 | 236 | 3.5 | 7.0 | 0.00 | 0.00 | 0.00 | 68 | 1015.3 |
| 20260902191550 | 94 | 244 | 3.5 | 7.8 | 0.00 | 0.00 | 0.00 | 66 | 1015.4 |
| 20260902190050 | 93 | 223 | 3.5 | 9.6 | 0.00 | 0.00 | 0.00 | 67 | 1015.4 |
| 20260902184548 | 93 | 227 | 4.3 | 7.0 | 0.00 | 0.00 | 0.00 | 67 | 1015.4 |
| 20260902183057 | 92 | 225 | 2.6 | 6.1 | 0.00 | 0.00 | 0.00 | 69 | 1015.4 |
| 20260902181545 | 93 | 230 | 4.3 | 8.7 | 0.00 | 0.00 | 0.00 | 69 | 1015.5 |
| 20260902180045 | 93 | 217 | 5.2 | 9.6 | 0.00 | 0.00 | 0.00 | 67 | 1015.5 |
| 20260902174538 | 93 | 225 | 2.6 | 7.8 | 0.00 | 0.00 | 0.00 | 68 | 1015.7 |
| 20260902173050 | 92 | 242 | 2.6 | 7.8 | 0.00 | 0.00 | 0.00 | 69 | 1015.7 |
| 20260902171534 | 92 | 248 | 4.3 | 7.0 | 0.00 | 0.00 | 0.00 | 70 | 1015.9 |
| 20260902170034 | 91 | 246 | 3.5 | 7.8 | 0.00 | 0.00 | 0.00 | 70 | 1016.1 |
| 20260902164531 | 90 | 241 | 3.5 | 7.0 | 0.00 | 0.00 | 0.00 | 70 | 1016.2 |
| 20260902163024 | 90 | 240 | 3.5 | 8.7 | 0.00 | 0.00 | 0.00 | 73 | 1016.1 |
| 20260902161520 | 89 | 251 | 4.3 | 7.8 | 0.00 | 0.00 | 0.00 | 74 | 1016.3 |
| 20260902160018 | 88 | 254 | 3.5 | 8.7 | 0.00 | 0.00 | 0.00 | 73 | 1016.3 |
| 20260902154517 | 87 | 237 | 2.6 | 8.7 | 0.00 | 0.00 | 0.00 | 75 | 1016.3 |
| 20260902153012 | 86 | 256 | 5.2 | 9.6 | 0.00 | 0.00 | 0.00 | 75 | 1016.3 |
| 20260902151509 | 86 | 268 | 6.1 | 9.6 | 0.00 | 0.00 | 0.00 | 74 | 1016.2 |
| 20260902150007 | 85 | 259 | 4.3 | 7.8 | 0.00 | 0.00 | 0.00 | 79 | 1016.3 |
| 20260902144503 | 84 | 215 | 3.5 | 7.0 | 0.00 | 0.00 | 0.00 | 80 | 1016.2 |
| 20260902143102 | 83 | 254 | 3.5 | 8.7 | 0.00 | 0.00 | 0.00 | 81 | 1016.3 |
| 20260902141558 | 82 | 225 | 4.3 | 7.8 | 0.00 | 0.00 | 0.00 | 81 | 1016.3 |
| 20260902140055 | 81 | 240 | 3.5 | 6.1 | 0.00 | 0.00 | 0.00 | 83 | 1016.4 |
| 20260902134551 | 80 | 234 | 1.7 | 4.3 | 0.00 | 0.00 | 0.00 | 86 | 1016.4 |
| 20260902133048 | 79 | 252 | 2.6 | 4.3 | 0.00 | 0.00 | 0.00 | 87 | 1016.5 |
| 20260902131545 | 78 | 196 | 0.0 | 4.3 | 0.00 | 0.00 | 0.00 | 89 | 1016.5 |
| 20260902130040 | 76 | 180 | 0.9 | 2.6 | 0.00 | 0.00 | 0.00 | 91 | 1016.7 |
| 20260902124538 | 75 | 178 | 2.6 | 3.5 | 0.00 | 0.00 | 0.00 | 92 | 1016.6 |
| 20260902123037 | 74 | 173 | 1.7 | 3.5 | 0.00 | 0.00 | 0.00 | 93 | 1016.7 |
| 20260902121538 | 73 | 173 | 0.9 | 2.6 | 0.00 | 0.00 | 0.00 | 95 | 1016.8 |
| 20260902120035 | 71 | 173 | 1.7 | 3.5 | 0.00 | 0.00 | 0.00 | 95 | 1016.7 |
| 20260902114535 | 68 | 168 | 0.0 | 1.7 | 0.00 | 0.00 | 0.00 | 95 | 1016.7 |
| 20260902113033 | 67 | 168 | 0.0 | 0.0 | 0.00 | 0.00 | 0.00 | 94 | 1016.6 |
| 20260902111532 | 68 | 168 | 0.0 | 0.0 | 0.00 | 0.00 | 0.00 | 94 | 1016.6 |
| 20260902110044 | 68 | 168 | 0.0 | 0.0 | 0.00 | 0.00 | 0.00 | 94 | 1016.6 |
| 20260902104550 | 67 | 168 | 0.0 | 0.0 | 0.00 | 0.00 | 0.00 | 94 | 1016.7 |
| 20260902103046 | 67 | 168 | 0.0 | 0.0 | 0.00 | 0.00 | 0.00 | 94 | 1016.5 |
| 20260902101528 | 67 | 168 | 0.0 | 0.0 | 0.00 | 0.00 | 0.00 | 93 | 1016.5 |
| 20260902100027 | 68 | 168 | 0.0 | 0.0 | 0.00 | 0.00 | 0.00 | 94 | 1016.4 |
| 20260902094525 | 68 | 168 | 0.0 | 0.0 | 0.00 | 0.00 | 0.00 | 93 | 1016.3 |
| 20260902093023 | 68 | 168 | 0.0 | 0.0 | 0.00 | 0.00 | 0.00 | 94 | 1016.1 |
| 20260902091521 | 68 | 168 | 0.0 | 0.0 | 0.00 | 0.00 | 0.00 | 93 | 1016.0 |
| 20260902090027 | 69 | 168 | 0.0 | 0.0 | 0.00 | 0.00 | 0.00 | 93 | 1016.0 |
| 20260902084526 | 69 | 168 | 0.0 | 0.0 | 0.00 | 0.00 | 0.00 | 93 | 1016.0 |
| 20260902083019 | 69 | 168 | 0.0 | 0.0 | 0.00 | 0.00 | 0.00 | 94 | 1015.8 |
| 20260902081519 | 69 | 168 | 0.0 | 0.0 | 0.00 | 0.00 | 0.00 | 93 | 1015.8 |
| 20260902080022 | 69 | 168 | 0.0 | 0.0 | 0.00 | 0.00 | 0.00 | 92 | 1015.7 |
| 20260902074515 | 69 | 168 | 0.0 | 0.0 | 0.00 | 0.00 | 0.00 | 92 | 1015.8 |
| 20260902073013 | 70 | 168 | 0.0 | 0.0 | 0.00 | 0.00 | 0.00 | 92 | 1015.9 |
| 20260902071511 | 71 | 168 | 0.0 | 0.0 | 0.00 | 0.00 | 0.00 | 92 | 1015.8 |
| 20260902070014 | 71 | 168 | 0.0 | 0.0 | 0.00 | 0.00 | 0.00 | 92 | 1015.9 |
| 20260902064510 | 71 | 168 | 0.0 | 0.0 | 0.00 | 0.00 | 0.00 | 91 | 1016.0 |
| 20260902063020 | 71 | 168 | 0.0 | 0.0 | 0.00 | 0.00 | 0.00 | 90 | 1016.0 |
| 20260902061505 | 72 | 168 | 0.0 | 0.0 | 0.00 | 0.00 | 0.00 | 90 | 1015.9 |
| 20260902060001 | 73 | 168 | 0.0 | 0.0 | 0.00 | 0.00 | 0.00 | 90 | 1015.9 |
| 20260902054559 | 74 | 168 | 0.0 | 1.7 | 0.00 | 0.00 | 0.00 | 92 | 1016.0 |
| 20260902053105 | 75 | 168 | 0.0 | 1.7 | 0.00 | 0.00 | 0.00 | 93 | 1015.9 |
| 20260902051608 | 75 | 168 | 0.0 | 0.9 | 0.00 | 0.00 | 0.00 | 93 | 1015.8 |
| 20260902050054 | 75 | 168 | 0.0 | 4.3 | 0.00 | 0.00 | 0.00 | 94 | 1015.8 |
| 20260902044607 | 73 | 206 | 0.9 | 2.6 | 0.00 | 0.00 | 0.00 | 94 | 1015.9 |
| 20260902043052 | 74 | 207 | 0.0 | 0.0 | 0.00 | 0.00 | 0.00 | 93 | 1015.7 |
| 20260902041553 | 74 | 207 | 0.0 | 0.0 | 0.00 | 0.00 | 0.00 | 93 | 1015.7 |
| 20260902040052 | 75 | 207 | 0.0 | 0.0 | 0.00 | 0.00 | 0.00 | 93 | 1015.7 |
| 20260902034552 | 75 | 207 | 0.0 | 0.0 | 0.00 | 0.00 | 0.00 | 93 | 1015.7 |
| 20260902033051 | 75 | 207 | 0.0 | 0.0 | 0.00 | 0.00 | 0.00 | 93 | 1015.8 |
| 20260902031558 | 75 | 207 | 0.0 | 0.0 | 0.00 | 0.00 | 0.00 | 92 | 1015.9 |
| 20260902030055 | 75 | 207 | 0.0 | 0.0 | 0.00 | 0.00 | 0.00 | 92 | 1015.9 |
| 20260902024557 | 76 | 207 | 0.0 | 0.0 | 0.00 | 0.00 | 0.00 | 92 | 1015.9 |
| 20260902023049 | 76 | 207 | 0.0 | 0.0 | 0.00 | 0.00 | 0.00 | 92 | 1015.8 |
| 20260902021551 | 76 | 207 | 0.0 | 0.0 | 0.00 | 0.00 | 0.00 | 91 | 1015.8 |
| 20260902020048 | 76 | 207 | 0.0 | 0.0 | 0.00 | 0.00 | 0.00 | 90 | 1015.7 |
| 20260902014648 | 77 | 207 | 0.0 | 0.0 | 0.00 | 0.00 | 0.00 | 91 | 1015.6 |
| 20260902013051 | 77 | 207 | 0.0 | 0.0 | 0.00 | 0.00 | 0.00 | 89 | 1015.5 |
| 20260902011546 | 79 | 207 | 0.0 | 0.0 | 0.00 | 0.00 | 0.00 | 86 | 1015.3 |
| 20260902010046 | 81 | 206 | 0.0 | 0.0 | 0.00 | 0.00 | 0.00 | 84 | 1015.2 |
| 20260902004545 | 83 | 206 | 0.0 | 0.0 | 0.00 | 0.00 | 0.00 | 83 | 1015.2 |
| 20260902003044 | 85 | 206 | 0.0 | 0.0 | 0.00 | 0.00 | 0.00 | 83 | 1015.2 |
| 20260902001547 | 86 | 206 | 0.0 | 0.9 | 0.00 | 0.00 | 0.00 | 81 | 1015.2 |
| 20260902000043 | 88 | 206 | 0.9 | 1.7 | 0.00 | 0.00 | 0.00 | 79 | 1015.2 |
| 20260901234543 | 90 | 206 | 0.9 | 1.7 | 0.00 | 0.00 | 0.00 | 78 | 1015.2 |
| 20260901233142 | 91 | 206 | 0.0 | 0.0 | 0.00 | 0.00 | 0.00 | 77 | 1015.3 |
| 20260901231546 | 92 | 206 | 0.0 | 0.0 | 0.00 | 0.00 | 0.00 | 75 | 1015.4 |
| 20260901230052 | 93 | 206 | 0.0 | 0.9 | 0.00 | 0.00 | 0.00 | 73 | 1015.4 |
| 20260901224540 | 93 | 206 | 0.9 | 2.6 | 0.00 | 0.00 | 0.00 | 70 | 1015.4 |
| 20260901223040 | 93 | 210 | 0.9 | 3.5 | 0.00 | 0.00 | 0.00 | 70 | 1015.4 |
| 20260901221538 | 94 | 210 | 1.7 | 3.5 | 0.00 | 0.00 | 0.00 | 68 | 1015.3 |